FW3912 Weather Reports


time (UTC)temp
C
wind
direction
speed
KPH
gust
KPH
rain 1hr
cm
rain 24hr
cm
rain mn
cm
humidity
%
barometer
mb
20260506113017 16 135 1.6 4.8 0.00 0.15 0.03 71 1009.1
20260506104017 16 203 3.2 8.0 0.00 0.15 0.03 73 1009.5
20260506103017 16 203 1.6 6.4 0.00 0.15 0.03 73 1009.6
20260506102017 16 270 3.2 9.7 0.00 0.15 0.03 74 1009.5
20260506093517 16 270 3.2 6.4 0.00 0.15 0.03 74 1009.5
20260506092517 16 225 1.6 6.4 0.00 0.15 0.03 77 1009.5
20260506083536 15 225 1.6 3.2 0.00 0.15 0.03 82 1009.4
20260506082516 14 0.0 3.2 0.00 0.15 0.03 83 1009.5
20260506072055 13 0.0 3.2 0.00 0.15 0.03 86 1009.3
20260506071015 13 0.0 1.6 0.00 0.15 0.03 90 1009.3
20260506062015 12 203 1.6 4.8 0.00 0.15 0.03 94 1009.2
20260506061015 11 0.0 1.6 0.00 0.15 0.03 95 1009.1
20260506051015 8 0.0 0.0 0.03 0.15 0.03 98 1009.3
20260505182036 12 270 3.2 6.4 0.00 0.13 0.13 92 1010.2
20260505181016 12 270 1.6 4.8 0.00 0.13 0.13 92 1009.9
20260505172015 13 338 1.6 4.8 0.00 0.13 0.13 90 1009.2
20260505171015 13 270 1.6 3.2 0.00 0.13 0.13 91 1009.0
20260505162015 13 270 3.2 12.9 0.00 0.13 0.13 92 1009.6
20260505161015 12 270 3.2 11.3 0.00 0.13 0.13 93 1009.4
20260505140536 16 293 4.8 12.9 0.00 0.00 0.00 80 1010.0